DW0664 Weather Reports


Display with metric or nautical units.
time (UTC)temp
F
wind
direction
speed
MPH
gust
MPH
rain 1hr
in
rain 24hr
in
rain mn
in
humidity
%
barometer
mb
20260506232747 69 46 1.0 2.0 0.00 0.00 0.00 76 1013.0
20260506232241 70 54 1.0 2.0 0.00 0.00 0.00 76 1012.9
20260506231739 70 65 1.0 2.0 0.00 0.00 0.00 76 1012.9
20260506231237 70 75 1.0 2.0 0.00 0.00 0.00 75 1012.8
20260506230734 71 45 1.0 2.0 0.00 0.00 0.00 76 1012.7
20260506230231 71 45 1.0 2.0 0.00 0.00 0.00 75 1012.9
20260506225727 71 62 1.0 2.0 0.00 0.00 0.00 75 1012.8
20260506225224 71 6 2.0 3.0 0.00 0.00 0.00 75 1012.9
20260506224721 72 45 1.0 1.0 0.00 0.00 0.00 75 1012.9
20260506224218 71 33 1.0 3.0 0.00 0.00 0.00 75 1012.8
20260506223714 71 51 0.0 2.0 0.00 0.00 0.00 76 1012.9
20260506223210 71 60 1.0 2.0 0.00 0.00 0.00 75 1012.8
20260506222707 72 21 1.0 2.0 0.00 0.00 0.00 75 1012.7
20260506222202 73 34 2.0 2.0 0.00 0.00 0.00 74 1012.6
20260506221701 73 37 1.0 3.0 0.00 0.00 0.00 74 1012.6
20260506221158 72 350 1.0 2.0 0.00 0.00 0.00 75 1012.5
20260506220655 72 50 1.0 3.0 0.00 0.00 0.00 76 1012.5
20260506220150 72 54 0.0 2.0 0.00 0.00 0.00 76 1012.5
20260506215647 72 2 4.0 7.0 0.00 0.00 0.00 75 1012.7
20260506215142 72 50 1.0 1.0 0.00 0.00 0.00 76 1012.5
20260506214639 72 21 1.0 2.0 0.00 0.00 0.00 76 1012.3
20260506214137 72 22 2.0 3.0 0.00 0.00 0.00 76 1012.3
20260506213635 72 40 1.0 1.0 0.00 0.00 0.00 77 1012.3
20260506213132 72 50 1.0 3.0 0.00 0.00 0.00 77 1012.4
20260506212629 72 42 1.0 6.0 0.00 0.00 0.00 77 1012.4
20260506212124 73 14 1.0 2.0 0.00 0.00 0.00 78 1012.4
20260506211620 72 40 1.0 3.0 0.00 0.00 0.00 78 1012.5
20260506211117 72 28 1.0 2.0 0.00 0.00 0.00 79 1012.5
20260506210614 72 58 1.0 3.0 0.00 0.00 0.00 78 1012.3
20260506210110 73 18 2.0 2.0 0.00 0.00 0.00 77 1012.3
20260506205607 75 336 3.0 3.0 0.00 0.00 0.00 78 1012.3
20260506205102 75 64 0.0 2.0 0.00 0.00 0.00 79 1012.3
20260506204600 75 47 0.0 2.0 0.00 0.00 0.00 79 1012.3
20260506204057 76 32 2.0 3.0 0.00 0.00 0.00 77 1012.2
20260506203555 78 11 1.0 2.0 0.00 0.00 0.00 79 1012.2
20260506203051 78 57 0.0 0.0 0.00 0.00 0.00 78 1012.2
20260506202549 78 45 0.0 3.0 0.00 0.00 0.00 78 1012.1
20260506202045 78 50 1.0 2.0 0.00 0.00 0.00 77 1012.1
20260506201543 79 62 1.0 1.0 0.00 0.00 0.00 77 1011.9
20260506201039 78 59 0.0 1.0 0.00 0.00 0.00 78 1012.0
20260506200535 78 56 0.0 3.0 0.00 0.00 0.00 77 1012.2
20260506200033 79 45 1.0 1.0 0.00 0.00 0.00 75 1012.4
20260506195529 80 45 1.0 1.0 0.00 0.00 0.00 72 1012.2
20260506195026 80 61 0.0 1.0 0.00 0.00 0.00 73 1012.5
20260506194524 80 76 0.0 1.0 0.00 0.00 0.00 72 1012.2
20260506194020 79 41 0.0 1.0 0.00 0.00 0.00 73 1012.3
20260506193517 79 61 0.0 2.0 0.00 0.00 0.00 73 1012.1
20260506193014 77 56 0.0 1.0 0.00 0.00 0.00 76 1012.0
20260506192511 76 84 1.0 2.0 0.00 0.00 0.00 75 1012.2
20260506192007 77 81 0.0 2.0 0.00 0.00 0.00 74 1012.1
20260506191504 77 60 1.0 1.0 0.00 0.00 0.00 74 1012.2
20260506191000 76 91 1.0 1.0 0.00 0.00 0.00 74 1012.3
20260506190457 77 58 0.0 1.0 0.00 0.00 0.00 76 1012.3
20260506185953 76 82 1.0 3.0 0.00 0.00 0.00 76 1012.3
20260506185451 75 64 0.0 2.0 0.00 0.00 0.00 75 1012.5
20260506184948 75 88 1.0 2.0 0.00 0.00 0.00 76 1012.3
20260506184445 74 64 0.0 1.0 0.00 0.00 0.00 77 1012.2
20260506183942 75 140 1.0 2.0 0.00 0.00 0.00 74 1012.5
20260506183437 74 62 0.0 0.0 0.00 0.00 0.00 77 1012.4
20260506182935 73 60 0.0 1.0 0.00 0.00 0.00 78 1012.6
20260506182432 71 57 0.0 1.0 0.00 0.00 0.00 79 1012.6
20260506181929 72 61 0.0 1.0 0.00 0.00 0.00 78 1013.0
20260506181427 72 48 0.0 2.0 0.00 0.00 0.00 78 1012.9
20260506180923 71 59 1.0 3.0 0.00 0.00 0.00 79 1012.8
20260506180420 72 60 1.0 3.0 0.00 0.00 0.00 78 1013.1
20260506175917 72 70 1.0 2.0 0.00 0.00 0.00 78 1013.1
20260506175414 71 50 1.0 2.0 0.00 0.00 0.00 79 1013.2
20260506174910 71 54 0.0 2.0 0.00 0.00 0.00 81 1013.1
20260506174408 69 46 0.0 6.0 0.00 0.00 0.00 82 1013.0
20260506173905 69 55 2.0 6.0 0.00 0.00 0.00 82 1013.3
20260506173402 69 63 0.0 4.0 0.00 0.00 0.00 84 1013.6
20260506172859 68 51 1.0 2.0 0.00 0.00 0.00 86 1013.9
20260506172355 66 69 1.0 6.0 0.00 0.00 0.00 89 1014.0
20260506171853 66 84 1.0 2.0 0.00 0.00 0.00 90 1014.0
20260506171350 66 342 1.0 2.0 0.00 0.00 0.00 90 1014.1
20260506170848 67 35 1.0 3.0 0.00 0.00 0.00 90 1014.4
20260506170344 67 63 1.0 3.0 0.00 0.00 0.00 89 1014.6
20260506165843 68 59 0.0 2.0 0.00 0.00 0.00 87 1014.5
20260506165340 68 44 1.0 2.0 0.00 0.00 0.00 86 1014.6
20260506164836 70 103 2.0 3.0 0.00 0.00 0.00 85 1014.7
20260506164333 71 7 2.0 2.0 0.00 0.00 0.00 85 1014.5
20260506163831 71 11 1.0 4.0 0.00 0.00 0.00 85 1014.5
20260506163325 74 58 4.0 8.0 0.00 0.00 0.00 82 1014.4
20260506162821 79 20 4.0 4.0 0.00 0.00 0.00 85 1014.0
20260506162320 79 39 0.0 1.0 0.00 0.00 0.00 86 1013.9
20260506161817 79 58 0.0 0.0 0.00 0.00 0.00 86 1013.7
20260506161314 79 60 0.0 1.0 0.00 0.00 0.00 85 1013.6
20260506160812 80 135 0.0 1.0 0.00 0.00 0.00 85 1013.7
20260506160308 80 73 0.0 0.0 0.00 0.00 0.00 85 1013.3
20260506155807 80 69 0.0 0.0 0.00 0.00 0.00 85 1013.1
20260506155306 80 67 0.0 0.0 0.00 0.00 0.00 85 1012.9
20260506153415 80 265 0.0 2.0 0.00 0.00 0.00 84 1012.7
20260506152913 80 98 1.0 1.0 0.00 0.00 0.00 84 1012.5
20260506152410 80 70 0.0 2.0 0.00 0.00 0.00 84 1012.3
20260506151908 80 70 0.0 1.0 0.00 0.00 0.00 84 1012.7
20260506151405 80 76 0.0 1.0 0.00 0.00 0.00 84 1012.6
20260506150902 80 67 0.0 1.0 0.00 0.00 0.00 85 1012.7
20260506150358 80 67 0.0 0.0 0.00 0.00 0.00 85 1012.4
20260506145855 79 57 0.0 3.0 0.00 0.00 0.00 86 1012.5
20260506145351 79 73 1.0 1.0 0.00 0.00 0.00 86 1012.4
20260506144849 79 77 0.0 1.0 0.00 0.00 0.00 87 1012.4
20260506144345 78 71 0.0 1.0 0.00 0.00 0.00 87 1012.6
20260506143844 78 75 0.0 1.0 0.00 0.00 0.00 88 1012.5
20260506143341 78 81 0.0 1.0 0.00 0.00 0.00 88 1012.7
20260506142839 78 70 0.0 1.0 0.00 0.00 0.00 88 1012.6
20260506142337 78 68 0.0 0.0 0.00 0.00 0.00 89 1012.4
20260506141835 78 69 0.0 0.0 0.00 0.00 0.00 89 1012.3
20260506141332 77 73 0.0 1.0 0.00 0.00 0.00 89 1012.0
20260506140830 77 76 1.0 2.0 0.00 0.00 0.00 89 1012.1
20260506140327 77 94 0.0 2.0 0.00 0.00 0.00 90 1011.8
20260506135824 77 82 1.0 2.0 0.00 0.00 0.00 90 1011.8
20260506135320 77 82 2.0 3.0 0.00 0.00 0.00 90 1011.9
20260506134817 77 77 0.0 1.0 0.00 0.00 0.00 91 1011.9
20260506134313 76 81 0.0 0.0 0.00 0.00 0.00 91 1011.9
20260506133810 76 67 0.0 2.0 0.00 0.00 0.00 91 1011.9
20260506133307 76 82 1.0 4.0 0.00 0.00 0.00 92 1011.8
20260506132804 76 76 0.0 1.0 0.00 0.00 0.00 92 1011.8
20260506132301 76 65 0.0 1.0 0.00 0.00 0.00 93 1011.6
20260506131759 76 70 0.0 1.0 0.00 0.00 0.00 93 1011.7
20260506131255 76 98 0.0 1.0 0.00 0.00 0.00 93 1011.8
20260506130752 76 76 0.0 0.0 0.00 0.00 0.00 93 1011.6
20260506130249 76 85 0.0 1.0 0.00 0.00 0.00 93 1011.9
20260506125747 76 70 0.0 1.0 0.00 0.00 0.00 93 1011.8
20260506125244 76 115 1.0 2.0 0.00 0.00 0.00 93 1011.7
20260506124743 76 71 0.0 0.0 0.00 0.00 0.00 93 1011.6
20260506124240 75 70 0.0 0.0 0.00 0.00 0.00 93 1011.6
20260506123737 75 71 0.0 1.0 0.00 0.00 0.00 93 1011.5
20260506123236 75 84 0.0 1.0 0.00 0.00 0.00 93 1011.6
20260506122732 75 67 0.0 1.0 0.00 0.00 0.00 94 1011.5
20260506122229 75 68 0.0 0.0 0.00 0.00 0.00 94 1011.8
20260506121728 75 69 0.0 2.0 0.00 0.00 0.00 94 1011.6
20260506121224 75 70 0.0 0.0 0.00 0.00 0.00 94 1011.7
20260506120722 75 59 0.0 0.0 0.00 0.00 0.00 94 1011.6
20260506120219 75 69 0.0 0.0 0.00 0.00 0.00 94 1011.6
20260506115717 75 69 0.0 0.0 0.00 0.00 0.00 94 1011.6
20260506115215 75 70 0.0 0.0 0.00 0.00 0.00 94 1011.5
20260506114712 75 68 0.0 0.0 0.00 0.00 0.00 94 1011.3
20260506114210 75 69 0.0 0.0 0.00 0.00 0.00 94 1011.4
20260506113708 75 70 0.0 0.0 0.00 0.00 0.00 94 1011.4
20260506113205 75 72 0.0 0.0 0.00 0.00 0.00 94 1011.3
20260506112701 75 67 0.0 0.0 0.00 0.00 0.00 93 1011.4
20260506112159 75 71 0.0 0.0 0.00 0.00 0.00 93 1011.3
20260506111656 75 70 0.0 0.0 0.00 0.00 0.00 93 1011.3
20260506111154 75 69 0.0 0.0 0.00 0.00 0.00 93 1011.1
20260506110651 75 69 0.0 2.0 0.00 0.00 0.00 93 1011.1
20260506110148 75 61 0.0 0.0 0.00 0.00 0.00 93 1011.1
20260506105645 75 58 0.0 2.0 0.00 0.00 0.00 93 1011.0
20260506105141 75 90 0.0 1.0 0.00 0.00 0.00 93 1010.9
20260506104640 75 78 0.0 1.0 0.00 0.00 0.00 93 1010.9
20260506104137 75 69 0.0 0.0 0.00 0.00 0.00 93 1010.7
20260506103634 75 77 1.0 1.0 0.00 0.00 0.00 92 1010.8
20260506103131 75 70 0.0 0.0 0.00 0.00 0.00 92 1010.7
20260506102629 75 81 0.0 1.0 0.00 0.00 0.00 92 1010.7
20260506102126 75 76 0.0 1.0 0.00 0.00 0.00 93 1010.8
20260506101623 75 69 0.0 0.0 0.00 0.00 0.00 93 1010.5
20260506101120 75 69 0.0 0.0 0.00 0.00 0.00 92 1010.4
20260506100618 75 71 0.0 1.0 0.00 0.00 0.00 92 1010.5
20260506100116 75 75 1.0 1.0 0.00 0.00 0.00 92 1010.4
20260506095615 75 76 0.0 1.0 0.00 0.00 0.00 92 1010.4
20260506095111 75 55 0.0 3.0 0.00 0.00 0.00 92 1010.3
20260506094608 75 76 0.0 1.0 0.00 0.00 0.00 92 1010.0
20260506094106 75 85 0.0 1.0 0.00 0.00 0.00 92 1010.3
20260506093604 75 111 0.0 0.0 0.00 0.00 0.00 93 1010.4
20260506093101 75 74 0.0 1.0 0.00 0.00 0.00 92 1010.4
20260506092559 75 52 0.0 0.0 0.00 0.00 0.00 92 1010.2
20260506092055 75 73 0.0 1.0 0.00 0.00 0.00 92 1010.3
20260506091554 75 67 0.0 1.0 0.00 0.00 0.00 92 1010.3
20260506091051 75 78 0.0 1.0 0.00 0.00 0.00 92 1010.3
20260506090549 75 72 0.0 0.0 0.00 0.00 0.00 92 1010.2
20260506090045 75 69 0.0 1.0 0.00 0.00 0.00 92 1010.2
20260506085542 75 76 0.0 1.0 0.00 0.00 0.00 92 1010.1
20260506085038 75 68 0.0 1.0 0.00 0.00 0.00 92 1010.3
20260506084535 75 78 1.0 1.0 0.00 0.00 0.00 92 1010.1
20260506084031 75 65 0.0 1.0 0.00 0.00 0.00 92 1010.1
20260506083529 75 98 1.0 1.0 0.00 0.00 0.00 92 1010.0
20260506083026 75 75 1.0 1.0 0.00 0.00 0.00 92 1010.1
20260506082523 75 101 2.0 4.0 0.00 0.00 0.00 92 1010.0
20260506082018 75 58 1.0 1.0 0.00 0.00 0.00 92 1010.0
20260506081517 75 82 2.0 3.0 0.00 0.00 0.00 92 1010.2
20260506081014 75 90 1.0 1.0 0.00 0.00 0.00 92 1010.0
20260506080511 75 76 1.0 3.0 0.00 0.00 0.00 92 1009.9
20260506073455 75 81 1.0 1.0 0.00 0.00 0.00 92 1010.3
20260506072952 75 118 2.0 4.0 0.00 0.00 0.00 92 1010.3
20260506072449 75 127 3.0 4.0 0.00 0.00 0.00 93 1010.3
20260506071947 75 95 2.0 4.0 0.00 0.00 0.00 93 1010.5
20260506071445 75 97 1.0 8.0 0.00 0.00 0.00 93 1010.4
20260506070941 75 97 3.0 8.0 0.00 0.00 0.00 93 1010.2
20260506070438 75 66 1.0 4.0 0.00 0.00 0.00 93 1010.1
20260506062416 75 87 1.0 2.0 0.00 0.00 0.00 92 1010.4
20260506061912 75 92 4.0 8.0 0.00 0.00 0.00 92 1010.5
20260506061408 75 134 1.0 3.0 0.00 0.00 0.00 92 1010.5
20260506060906 75 59 2.0 8.0 0.00 0.00 0.00 92 1010.7
20260506060404 75 111 3.0 6.0 0.00 0.00 0.00 92 1010.8
20260506051336 76 109 2.0 7.0 0.00 0.00 0.00 90 1010.6
20260506050834 76 118 2.0 4.0 0.00 0.00 0.00 90 1010.5
20260506050331 76 112 0.0 3.0 0.00 0.00 0.00 90 1010.6
20260506044821 76 115 3.0 6.0 0.00 0.00 0.00 89 1010.4
20260506044319 76 87 1.0 6.0 0.00 0.00 0.00 89 1010.6
20260506043816 76 94 4.0 4.0 0.00 0.00 0.00 89 1010.4
20260506043313 76 114 2.0 3.0 0.00 0.00 0.00 89 1010.5
20260506042812 77 190 1.0 2.0 0.00 0.00 0.00 89 1010.4
20260506042310 77 91 2.0 3.0 0.00 0.00 0.00 88 1010.5
20260506041808 77 72 0.0 2.0 0.00 0.00 0.00 88 1010.5
20260506041305 77 93 1.0 3.0 0.00 0.00 0.00 88 1010.4
20260506040802 77 67 1.0 6.0 0.00 0.00 0.00 88 1010.4
20260506040259 77 66 1.0 3.0 0.00 0.00 0.00 88 1010.3
20260506035756 77 102 1.0 3.0 0.00 0.00 0.00 87 1010.3
20260506035253 77 125 1.0 3.0 0.00 0.00 0.00 87 1010.0
20260506034750 77 165 2.0 3.0 0.00 0.00 0.00 86 1009.8
20260506034247 77 152 4.0 7.0 0.00 0.00 0.00 86 1010.0
20260506033744 77 125 1.0 4.0 0.00 0.00 0.00 86 1009.8
20260506033241 77 196 1.0 2.0 0.00 0.00 0.00 86 1009.9
20260506032738 77 155 2.0 3.0 0.00 0.00 0.00 86 1009.7
20260506032235 77 73 1.0 1.0 0.00 0.00 0.00 85 1009.8
20260506031732 78 144 8.0 11.0 0.00 0.00 0.00 85 1009.7
20260506031229 78 62 3.0 4.0 0.00 0.00 0.00 85 1009.6
20260506030728 78 98 1.0 4.0 0.00 0.00 0.00 84 1009.5
20260506030225 78 111 1.0 3.0 0.00 0.00 0.00 84 1009.4
20260506025721 78 66 1.0 2.0 0.00 0.00 0.00 84 1009.6
20260506025217 78 111 2.0 4.0 0.00 0.00 0.00 84 1009.4
20260506024714 78 104 3.0 6.0 0.00 0.00 0.00 84 1009.3
20260506024211 78 169 3.0 4.0 0.00 0.00 0.00 84 1009.3
20260506023708 78 61 2.0 4.0 0.00 0.00 0.00 84 1009.3
20260506023205 78 123 1.0 2.0 0.00 0.00 0.00 84 1009.0
20260506022702 78 113 2.0 2.0 0.00 0.00 0.00 84 1009.1
20260506022159 78 89 1.0 2.0 0.00 0.00 0.00 84 1009.2
20260506021657 78 77 2.0 3.0 0.00 0.00 0.00 84 1009.0
20260506021154 78 79 1.0 2.0 0.00 0.00 0.00 84 1009.1
20260506020651 78 134 1.0 3.0 0.00 0.00 0.00 84 1009.1
20260506020149 78 86 1.0 2.0 0.00 0.00 0.00 84 1008.9
20260506015646 78 82 1.0 4.0 0.00 0.00 0.00 83 1009.1
20260506015143 78 72 0.0 1.0 0.00 0.00 0.00 83 1009.2
20260506014641 78 70 0.0 0.0 0.00 0.00 0.00 83 1008.9
20260506014136 78 70 0.0 2.0 0.00 0.00 0.00 83 1008.9
20260506013634 78 67 1.0 1.0 0.00 0.00 0.00 83 1009.0
20260506013131 79 91 0.0 3.0 0.00 0.00 0.00 83 1009.0
20260506012627 79 105 0.0 2.0 0.00 0.00 0.00 82 1008.5
20260506012124 79 72 0.0 1.0 0.00 0.00 0.00 82 1008.6
20260506011622 79 81 0.0 1.0 0.00 0.00 0.00 81 1008.4
20260506011117 79 59 0.0 2.0 0.00 0.00 0.00 81 1008.3
20260506010611 80 73 1.0 3.0 0.00 0.00 0.00 81 1008.1
20260506010107 80 75 1.0 7.0 0.00 0.00 0.00 80 1008.1
20260506005604 80 198 2.0 7.0 0.00 0.00 0.00 80 1007.8
20260506005100 80 170 0.0 3.0 0.00 0.00 0.00 80 1008.1
20260506004558 80 76 1.0 4.0 0.00 0.00 0.00 80 1007.9
20260506004054 80 83 0.0 2.0 0.00 0.00 0.00 79 1007.9
20260506003551 80 93 1.0 4.0 0.00 0.00 0.00 79 1007.9
20260506003047 81 90 0.0 3.0 0.00 0.00 0.00 78 1008.0
20260506002543 81 109 1.0 4.0 0.00 0.00 0.00 78 1007.8
20260506002039 81 144 2.0 4.0 0.00 0.00 0.00 78 1007.8
20260506001535 81 102 2.0 4.0 0.00 0.00 0.00 77 1007.9
20260506001033 82 120 1.0 2.0 0.00 0.00 0.00 77 1008.0
20260506000530 82 22 4.0 6.0 0.00 0.00 0.00 77 1008.1
20260506000028 82 84 5.0 9.0 0.00 0.00 0.00 77 1008.3
20260505235526 82 78 0.0 2.0 0.00 0.00 0.00 77 1007.8
20260505235022 82 88 1.0 3.0 0.00 0.00 0.00 76 1007.9
20260505234519 82 43 1.0 3.0 0.00 0.00 0.00 76 1007.9
20260505234016 82 104 1.0 4.0 0.00 0.00 0.00 75 1007.8
20260505233514 83 84 2.0 4.0 0.00 0.00 0.00 75 1007.9
20260505233011 83 54 2.0 2.0 0.00 0.00 0.00 75 1007.8